No data was retrieved for https://query.yahooapis.com/v1/public/yql?q=select+%2A+from+weather.forecast+where+woeid%3D731260&format=xml&u=c



Weather Underground Historische gegevens

Dagelijkse Samenvatting april 20, 2019 Eenheden:  Metrisch    Engels   Beide
« Vorige Dag
Volgende Dag »
Dagelijkse Wekelijkse Maandelijkse Jaarlijkse Aangepaste
  Huidig: Hoog: Laag: Gemiddeld:
Temperatuur: -11.3 °C -17.8 °C -13.1 °C -8.6 °C
Dauwpunt: -15 °C -17.8 °C -19.9 °C -15.5 °C
Vochtigheid: 64 % Humidity % 24 % 45 %
Wind snelheid: 2.6 km/h 0 km/h 0 km/h 6.8 km/h
Windvlaag: 5.1 km/h 0 km/h - -
Wind:NNE - - ENE
Luchtdruk: 34814.9 hPa 0 hPa 34801.3 hPa -
Neerslag: 0 mm      
Historical Graphs
 
 
Tabel voor april 20, 2019
Tijd Temperatuur Dauwpunt Luchtdruk Wind Wind snelheid Windvlaag Vochtigheid Regenval per uur
-17.8 °C -17.8 °C 0 hPa Calm     Humidity % 0 mm
00:00 -10.8 °C -14.6 °C 34889.3 hPa Calm   5.1 km/h 63 % 0 mm
00:05 -10.8 °C -14.7 °C 34889.3 hPa Calm   7.7 km/h 63 % 0 mm
00:10 -10.9 °C -14.7 °C 34892.7 hPa NNE 2.6 km/h 10.3 km/h 63 % 0 mm
00:15 -10.9 °C -14.7 °C 34892.7 hPa NNE 2.6 km/h 7.7 km/h 63 % 0 mm
00:20 -11 °C -14.9 °C 34892.7 hPa Calm   7.7 km/h 62 % 0 mm
00:25 -11 °C -14.9 °C 34889.3 hPa NNE 2.6 km/h 7.7 km/h 62 % 0 mm
00:30 -11.1 °C -15 °C 34889.3 hPa Calm   7.7 km/h 62 % 0 mm
00:35 -11.1 °C -15.1 °C 34889.3 hPa NNE 2.6 km/h 7.7 km/h 62 % 0 mm
00:40 -11.1 °C -15.2 °C 34889.3 hPa NNE 5.1 km/h 7.7 km/h 61 % 0 mm
00:45 -11.2 °C -15.2 °C 34889.3 hPa NNE 2.6 km/h 7.7 km/h 61 % 0 mm
00:50 -11.2 °C -15.4 °C 34889.3 hPa Calm   7.7 km/h 60 % 0 mm
00:55 -11.2 °C -15.4 °C 34889.3 hPa NNE 5.1 km/h 10.3 km/h 60 % 0 mm
01:00 -11.3 °C -15.6 °C 34889.3 hPa Calm   7.7 km/h 59 % 0 mm
01:05 -11.3 °C -15.6 °C 34889.3 hPa NNE 2.6 km/h 10.3 km/h 59 % 0 mm
01:10 -11.3 °C -15.8 °C 34889.3 hPa Calm   7.7 km/h 58 % 0 mm
01:15 -11.3 °C -16.1 °C 34889.3 hPa NNE 5.1 km/h 7.7 km/h 56 % 0 mm
01:20 -11.3 °C -16.2 °C 34889.3 hPa NNE 2.6 km/h 7.7 km/h 55 % 0 mm
01:25 -11.3 °C -16.2 °C 34889.3 hPa NNE 5.1 km/h 10.3 km/h 55 % 0 mm
01:30 -11.3 °C -16.5 °C 34889.3 hPa NNE 7.7 km/h 7.7 km/h 53 % 0 mm
01:35 -11.4 °C -16.6 °C 34889.3 hPa Calm   7.7 km/h 53 % 0 mm
01:40 -11.4 °C -16.8 °C 34889.3 hPa NNE 5.1 km/h 12.9 km/h 51 % 0 mm
01:45 -11.4 °C -16.9 °C 34889.3 hPa NNE 2.6 km/h 18.2 km/h 51 % 0 mm
01:50 -11.5 °C -17.1 °C 34889.3 hPa NNE 2.6 km/h 10.3 km/h 50 % 0 mm
01:55 -11.6 °C -17.1 °C 34886 hPa NNE 2.6 km/h 7.7 km/h 50 % 0 mm
02:00 -11.6 °C -17.2 °C 34886 hPa NNE 2.6 km/h 15.6 km/h 50 % 0 mm
02:05 -11.6 °C -17.3 °C 34886 hPa NNE 7.7 km/h 10.3 km/h 49 % 0 mm
02:10 -11.7 °C -17.6 °C 34886 hPa NNE 10.3 km/h 10.3 km/h 48 % 0 mm
02:15 -11.7 °C -17.7 °C 34886 hPa NNE 7.7 km/h 7.7 km/h 47 % 0 mm
02:20 -11.7 °C -17.8 °C 34882.6 hPa NNE 7.7 km/h 10.3 km/h 47 % 0 mm
02:25 -11.8 °C -17.9 °C 34886 hPa NNE 5.1 km/h 7.7 km/h 46 % 0 mm
02:30 -11.8 °C -18.2 °C 34882.6 hPa NNE 5.1 km/h 10.3 km/h 45 % 0 mm
02:35 -11.8 °C -18.2 °C 34882.6 hPa NNE 5.1 km/h 7.7 km/h 45 % 0 mm
02:40 -11.8 °C -18.4 °C 34882.6 hPa NNE 5.1 km/h 15.6 km/h 44 % 0 mm
02:45 -11.9 °C -18.4 °C 34882.6 hPa NNE 2.6 km/h 7.7 km/h 44 % 0 mm
02:50 -11.9 °C -18.6 °C 34882.6 hPa NNE 2.6 km/h 5.1 km/h 43 % 0 mm
02:55 -11.9 °C -18.6 °C 34886 hPa NNE 2.6 km/h 7.7 km/h 43 % 0 mm
03:00 -11.9 °C -18.7 °C 34886 hPa NNE 5.1 km/h 10.3 km/h 43 % 0 mm
03:05 -12 °C -18.7 °C 34886 hPa NNE 5.1 km/h 10.3 km/h 43 % 0 mm
03:10 -12 °C -18.7 °C 34882.6 hPa NNE 5.1 km/h 7.7 km/h 43 % 0 mm
03:15 -12.1 °C -18.7 °C 34886 hPa NNE 7.7 km/h 10.3 km/h 43 % 0 mm
03:20 -12.1 °C -18.6 °C 34882.6 hPa NNE 7.7 km/h 12.9 km/h 44 % 0 mm
03:25 -12.1 °C -18.6 °C 34886 hPa Calm   10.3 km/h 44 % 0 mm
03:30 -12.1 °C -18.7 °C 34882.6 hPa NE 5.1 km/h 15.6 km/h 44 % 0 mm
03:35 -12.2 °C -18.7 °C 34882.6 hPa NE 5.1 km/h 10.3 km/h 44 % 0 mm
03:40 -12.2 °C -18.7 °C 34882.6 hPa NE 5.1 km/h 7.7 km/h 44 % 0 mm
03:45 -12.3 °C -18.8 °C 34882.6 hPa NE 2.6 km/h 12.9 km/h 44 % 0 mm
03:50 -12.3 °C -18.8 °C 34882.6 hPa NE 5.1 km/h 10.3 km/h 44 % 0 mm
03:55 -12.3 °C -18.8 °C 34886 hPa NE 5.1 km/h 10.3 km/h 44 % 0 mm
04:00 -12.4 °C -18.9 °C 34886 hPa NE 10.3 km/h 12.9 km/h 44 % 0 mm
04:05 -12.4 °C -18.9 °C 34886 hPa NE 7.7 km/h 10.3 km/h 44 % 0 mm
04:10 -12.4 °C -19.1 °C 34886 hPa Calm   7.7 km/h 43 % 0 mm
04:15 -12.4 °C -19.1 °C 34889.3 hPa NE 2.6 km/h 12.9 km/h 43 % 0 mm
04:20 -12.4 °C -19.3 °C 34886 hPa NE 5.1 km/h 7.7 km/h 42 % 0 mm
04:25 -12.5 °C -19.3 °C 34886 hPa Calm   10.3 km/h 42 % 0 mm
04:30 -12.6 °C -19.3 °C 34889.3 hPa Calm   7.7 km/h 42 % 0 mm
04:35 -12.6 °C -19.4 °C 34889.3 hPa Calm   12.9 km/h 42 % 0 mm
04:40 -12.6 °C -19.4 °C 34886 hPa NE 5.1 km/h 7.7 km/h 42 % 0 mm
04:45 -12.6 °C -19.4 °C 34886 hPa NE 10.3 km/h 10.3 km/h 42 % 0 mm
04:50 -12.6 °C -19.6 °C 34882.6 hPa Calm   7.7 km/h 41 % 0 mm
04:55 -12.7 °C -19.4 °C 34882.6 hPa NE 5.1 km/h 7.7 km/h 42 % 0 mm
05:00 -12.7 °C -19.5 °C 34882.6 hPa NE 2.6 km/h 7.7 km/h 42 % 0 mm
05:05 -12.7 °C -19.7 °C 34879.2 hPa NE 2.6 km/h 7.7 km/h 41 % 0 mm
05:10 -12.7 °C -19.5 °C 34879.2 hPa Calm   7.7 km/h 42 % 0 mm
05:15 -12.7 °C -19.6 °C 34879.2 hPa NE 5.1 km/h 10.3 km/h 42 % 0 mm
05:20 -12.8 °C -19.6 °C 34879.2 hPa Calm   5.1 km/h 42 % 0 mm
05:25 -12.8 °C -19.6 °C 34882.6 hPa NE 10.3 km/h 10.3 km/h 42 % 0 mm
05:30 -12.8 °C -19.6 °C 34879.2 hPa Calm   2.6 km/h 42 % 0 mm
05:35 -12.9 °C -19.7 °C 34882.6 hPa NE 2.6 km/h 5.1 km/h 42 % 0 mm
05:40 -12.9 °C -19.7 °C 34882.6 hPa Calm   5.1 km/h 42 % 0 mm
05:45 -12.9 °C -19.7 °C 34882.6 hPa Calm   7.7 km/h 42 % 0 mm
05:50 -12.9 °C -19.9 °C 34882.6 hPa Calm   5.1 km/h 41 % 0 mm
05:55 -12.9 °C -19.9 °C 34882.6 hPa Calm   5.1 km/h 41 % 0 mm
06:00 -13 °C -19.8 °C 34882.6 hPa NE 2.6 km/h 5.1 km/h 42 % 0 mm
06:05 -13 °C -19.8 °C 34886 hPa NE 2.6 km/h 7.7 km/h 42 % 0 mm
06:10 -13 °C -19.8 °C 34882.6 hPa Calm   5.1 km/h 42 % 0 mm
06:15 -13.1 °C -19.8 °C 34882.6 hPa NE 2.6 km/h 7.7 km/h 42 % 0 mm
06:20 -13.1 °C -19.7 °C 34886 hPa NE 2.6 km/h 10.3 km/h 43 % 0 mm
06:25 -13.1 °C -19.7 °C 34886 hPa Calm   5.1 km/h 43 % 0 mm
06:30 -13.1 °C -19.7 °C 34886 hPa Calm   10.3 km/h 43 % 0 mm
06:35 -13.1 °C -19.7 °C 34886 hPa Calm   7.7 km/h 43 % 0 mm
06:40 -13.1 °C -19.6 °C 34889.3 hPa Calm   7.7 km/h 44 % 0 mm
06:45 -13.1 °C -19.6 °C 34889.3 hPa NE 5.1 km/h 7.7 km/h 44 % 0 mm
06:50 -13.1 °C -19.6 °C 34889.3 hPa NE 7.7 km/h 10.3 km/h 44 % 0 mm
06:55 -13.1 °C -19.6 °C 34892.7 hPa NE 2.6 km/h 12.9 km/h 44 % 0 mm
07:00 -13.1 °C -19.4 °C 34892.7 hPa NE 7.7 km/h 7.7 km/h 45 % 0 mm
07:05 -13.1 °C -19.2 °C 34892.7 hPa NE 2.6 km/h 7.7 km/h 46 % 0 mm
07:10 -13.1 °C -19.2 °C 34896.1 hPa NE 5.1 km/h 5.1 km/h 46 % 0 mm
07:15 -13.1 °C -19.2 °C 34896.1 hPa NE 5.1 km/h 5.1 km/h 46 % 0 mm
07:20 -13.1 °C -19.2 °C 34896.1 hPa NE 2.6 km/h 7.7 km/h 46 % 0 mm
07:25 -13.1 °C -19.3 °C 34899.5 hPa Calm   10.3 km/h 45 % 0 mm
07:30 -13 °C -19.1 °C 34899.5 hPa NE 5.1 km/h 10.3 km/h 46 % 0 mm
07:35 -12.9 °C -19.2 °C 34899.5 hPa NE 5.1 km/h 7.7 km/h 45 % 0 mm
07:40 -12.9 °C -19.2 °C 34902.9 hPa NE 5.1 km/h 7.7 km/h 45 % 0 mm
07:45 -12.8 °C -18.9 °C 34902.9 hPa NE 2.6 km/h 10.3 km/h 46 % 0 mm
07:50 -12.8 °C -18.9 °C 34899.5 hPa NE 7.7 km/h 7.7 km/h 46 % 0 mm
07:55 -12.7 °C -18.8 °C 34899.5 hPa NE 5.1 km/h 7.7 km/h 46 % 0 mm
08:00 -12.7 °C -18.8 °C 34902.9 hPa NE 5.1 km/h 5.1 km/h 46 % 0 mm
08:05 -12.6 °C -18.9 °C 34902.9 hPa NE 7.7 km/h 10.3 km/h 45 % 0 mm
08:10 -12.4 °C -18.9 °C 34906.3 hPa NE 5.1 km/h 10.3 km/h 44 % 0 mm
08:15 -12.3 °C -19 °C 34902.9 hPa NE 2.6 km/h 5.1 km/h 43 % 0 mm
08:20 -12.2 °C -18.9 °C 34906.3 hPa NE 7.7 km/h 12.9 km/h 43 % 0 mm
08:25 -12.1 °C -18.7 °C 34906.3 hPa Calm   7.7 km/h 44 % 0 mm
08:30 -12 °C -18.3 °C 34906.3 hPa NE 2.6 km/h 7.7 km/h 45 % 0 mm
08:35 -11.8 °C -18.1 °C 34906.3 hPa NE 5.1 km/h 15.6 km/h 46 % 0 mm
08:40 -11.7 °C -17.6 °C 34906.3 hPa NNE 2.6 km/h 15.6 km/h 48 % 0 mm
08:45 -11.5 °C -16.7 °C 34909.7 hPa NE 5.1 km/h 12.9 km/h 53 % 0 mm
08:50 -11.3 °C -15.8 °C 34906.3 hPa NE 5.1 km/h 12.9 km/h 58 % 0 mm
08:55 -11.1 °C -15.1 °C 34906.3 hPa NE 2.6 km/h 12.9 km/h 62 % 0 mm
09:00 -10.9 °C -14.6 °C 34906.3 hPa NE 2.6 km/h 12.9 km/h 64 % 0 mm
09:05 -10.6 °C -14.1 °C 34909.7 hPa NE 7.7 km/h 12.9 km/h 65 % 0 mm
09:10 -10.2 °C -13.6 °C 34909.7 hPa NE 5.1 km/h 12.9 km/h 66 % 0 mm
09:15 -9.9 °C -13.5 °C 34909.7 hPa NE 2.6 km/h 12.9 km/h 65 % 0 mm
09:20 -9.7 °C -13.4 °C 34909.7 hPa NE 5.1 km/h 10.3 km/h 64 % 0 mm
09:25 -9.5 °C -13.3 °C 34909.7 hPa NNE 2.6 km/h 10.3 km/h 63 % 0 mm
09:30 -9.2 °C -13.3 °C 34909.7 hPa NE 10.3 km/h 15.6 km/h 62 % 0 mm
09:35 -9 °C -13.2 °C 34909.7 hPa NE 2.6 km/h 10.3 km/h 61 % 0 mm
09:40 -8.8 °C -13.1 °C 34909.7 hPa NE 7.7 km/h 12.9 km/h 61 % 0 mm
09:45 -8.6 °C -12.9 °C 34909.7 hPa ENE 7.7 km/h 15.6 km/h 60 % 0 mm
09:50 -8.5 °C -13.1 °C 34909.7 hPa NE 2.6 km/h 12.9 km/h 58 % 0 mm
09:55 -8.3 °C -12.9 °C 34909.7 hPa NE 7.7 km/h 15.6 km/h 58 % 0 mm
10:00 -7.9 °C -12.7 °C 34909.7 hPa NE 10.3 km/h 10.3 km/h 57 % 0 mm
10:05 -7.9 °C -13 °C 34909.7 hPa NE 2.6 km/h 10.3 km/h 55 % 0 mm
10:10 -7.8 °C -12.7 °C 34909.7 hPa ENE 7.7 km/h 12.9 km/h 56 % 0 mm
10:15 -7.5 °C -12.4 °C 34909.7 hPa ENE 5.1 km/h 15.6 km/h 56 % 0 mm
10:20 -7.3 °C -12.6 °C 34906.3 hPa East 7.7 km/h 18.2 km/h 54 % 0 mm
10:25 -7.1 °C -12.4 °C 34906.3 hPa NE 12.9 km/h 18.2 km/h 54 % 0 mm
10:30 -7.1 °C -12.2 °C 34909.7 hPa NE 5.1 km/h 7.7 km/h 55 % 0 mm
10:35 -6.8 °C -12.2 °C 34909.7 hPa Calm   15.6 km/h 54 % 0 mm
10:40 -6.7 °C -12.2 °C 34909.7 hPa NE 5.1 km/h 12.9 km/h 53 % 0 mm
10:45 -6.7 °C -12.2 °C 34909.7 hPa NNE 2.6 km/h 12.9 km/h 53 % 0 mm
10:50 -6.6 °C -12.1 °C 34909.7 hPa North 5.1 km/h 12.9 km/h 53 % 0 mm
10:55 -6.6 °C -12.1 °C 34909.7 hPa NE 10.3 km/h 12.9 km/h 53 % 0 mm
11:00 -6.3 °C -11.9 °C 34909.7 hPa NNE 10.3 km/h 18.2 km/h 52 % 0 mm
11:05 -6.4 °C -12.1 °C 34906.3 hPa Calm   12.9 km/h 52 % 0 mm
11:10 -6.2 °C -12 °C 34902.9 hPa ENE 10.3 km/h 15.6 km/h 51 % 0 mm
11:15 -5.9 °C -12 °C 34902.9 hPa NNE 2.6 km/h 12.9 km/h 50 % 0 mm
11:20 -5.8 °C -12.2 °C 34902.9 hPa NNE 5.1 km/h 20.8 km/h 48 % 0 mm
11:25 -5.7 °C -12.1 °C 34902.9 hPa Calm   15.6 km/h 48 % 0 mm
11:30 -5.5 °C -12.1 °C 34902.9 hPa NNE 15.6 km/h 18.2 km/h 47 % 0 mm
11:35 -5.5 °C -12.3 °C 34899.5 hPa NNE 7.7 km/h 12.9 km/h 46 % 0 mm
11:40 -5.3 °C -12.1 °C 34899.5 hPa NNW 12.9 km/h 12.9 km/h 46 % 0 mm
11:45 -5.1 °C -12.5 °C 34899.5 hPa ENE 10.3 km/h 15.6 km/h 43 % 0 mm
11:50 -5.1 °C -12.8 °C 34896.1 hPa ENE 7.7 km/h 12.9 km/h 41 % 0 mm
11:55 -4.8 °C -12.6 °C 34896.1 hPa ENE 20.8 km/h 20.8 km/h 41 % 0 mm
12:00 -4.9 °C -12.9 °C 34896.1 hPa NNE 10.3 km/h 18.2 km/h 40 % 0 mm
12:05 -5.1 °C -13 °C 34892.7 hPa East 12.9 km/h 23.3 km/h 40 % 0 mm
12:10 -4.4 °C -12.8 °C 34892.7 hPa ENE 15.6 km/h 25.9 km/h 38 % 0 mm
12:15 -4.6 °C -13.3 °C 34892.7 hPa ENE 7.7 km/h 18.2 km/h 37 % 0 mm
12:20 -4.4 °C -13.1 °C 34892.7 hPa NE 18.2 km/h 18.2 km/h 37 % 0 mm
12:25 -4.4 °C -13.3 °C 34889.3 hPa East 2.6 km/h 25.9 km/h 36 % 0 mm
12:30 -4.3 °C -13 °C 34889.3 hPa ENE 18.2 km/h 20.8 km/h 37 % 0 mm
12:35 -4.4 °C -13.7 °C 34889.3 hPa East 5.1 km/h 23.3 km/h 34 % 0 mm
12:40 -4.2 °C -13.6 °C 34889.3 hPa ENE 10.3 km/h 18.2 km/h 34 % 0 mm
12:45 -4.3 °C -13.6 °C 34886 hPa NNE 12.9 km/h 23.3 km/h 34 % 0 mm
12:50 -4.3 °C -13.9 °C 34886 hPa ESE 20.8 km/h 23.3 km/h 33 % 0 mm
12:55 -4.5 °C -13.8 °C 34882.6 hPa North 15.6 km/h 31.1 km/h 34 % 0 mm
13:00 -4.3 °C -13.9 °C 34882.6 hPa ENE 5.1 km/h 12.9 km/h 33 % 0 mm
13:05 -4.1 °C -13.7 °C 34886 hPa Calm   20.8 km/h 33 % 0 mm
13:10 -3.9 °C -14.1 °C 34882.6 hPa NNE 7.7 km/h 25.9 km/h 31 % 0 mm
13:15 -3.9 °C -14.3 °C 34882.6 hPa East 15.6 km/h 23.3 km/h 30 % 0 mm
13:20 -4.2 °C -14.6 °C 34882.6 hPa SE 7.7 km/h 36.2 km/h 30 % 0 mm
13:25 -4.3 °C -14.9 °C 34879.2 hPa ESE 15.6 km/h 28.5 km/h 29 % 0 mm
13:30 -4 °C -14.2 °C 34879.2 hPa SE 12.9 km/h 25.9 km/h 31 % 0 mm
13:35 -4.2 °C -14.6 °C 34875.8 hPa East 7.7 km/h 20.8 km/h 30 % 0 mm
13:40 -4.2 °C -14.8 °C 34875.8 hPa SSE 5.1 km/h 33.6 km/h 29 % 0 mm
13:45 -4.2 °C -14.9 °C 34872.4 hPa East 10.3 km/h 28.5 km/h 29 % 0 mm
13:50 -3.8 °C -15.2 °C 34872.4 hPa ENE 18.2 km/h 31.1 km/h 27 % 0 mm
13:55 -4.1 °C -15.4 °C 34872.4 hPa SE 23.3 km/h 28.5 km/h 27 % 0 mm
14:00 -4 °C -15 °C 34872.4 hPa ESE 5.1 km/h 23.3 km/h 28 % 0 mm
14:05 -4 °C -15.3 °C 34869 hPa SE 10.3 km/h 23.3 km/h 27 % 0 mm
14:10 -3.9 °C -15.2 °C 34869 hPa ESE 7.7 km/h 23.3 km/h 27 % 0 mm
14:15 -4 °C -15.6 °C 34862.3 hPa ESE 5.1 km/h 20.8 km/h 26 % 0 mm
14:20 -3.9 °C -15.2 °C 34862.3 hPa East 7.7 km/h 28.5 km/h 27 % 0 mm
14:25 -3.9 °C -15.2 °C 34862.3 hPa ENE 18.2 km/h 18.2 km/h 27 % 0 mm
14:30 -3.7 °C -15 °C 34858.9 hPa East 5.1 km/h 20.8 km/h 27 % 0 mm
14:35 -3.6 °C -14.9 °C 34858.9 hPa ESE 7.7 km/h 20.8 km/h 27 % 0 mm
14:40 -3.6 °C -15.2 °C 34858.9 hPa NNE 7.7 km/h 23.3 km/h 26 % 0 mm
14:45 -3.6 °C -14.9 °C 34855.5 hPa ESE 10.3 km/h 25.9 km/h 27 % 0 mm
14:50 -3.7 °C -15.1 °C 34855.5 hPa NE 5.1 km/h 18.2 km/h 27 % 0 mm
14:55 -3.5 °C -15.2 °C 34855.5 hPa ESE 15.6 km/h 23.3 km/h 26 % 0 mm
15:00 -3.5 °C -15.4 °C 34852.1 hPa ENE 5.1 km/h 20.8 km/h 25 % 0 mm
15:05 -3.4 °C -14.8 °C 34852.1 hPa East 15.6 km/h 15.6 km/h 27 % 0 mm
15:10 -3.4 °C -15.1 °C 34852.1 hPa East 7.7 km/h 18.2 km/h 26 % 0 mm
15:15 -3.5 °C -15.1 °C 34852.1 hPa East 7.7 km/h 25.9 km/h 26 % 0 mm
15:20 -3.3 °C -15 °C 34848.7 hPa NE 12.9 km/h 18.2 km/h 26 % 0 mm
15:25 -3.4 °C -15.3 °C 34848.7 hPa NNE 23.3 km/h 23.3 km/h 25 % 0 mm
15:30 -3.3 °C -15 °C 34845.3 hPa East 10.3 km/h 18.2 km/h 26 % 0 mm
15:35 -3.3 °C -15.3 °C 34841.9 hPa East 5.1 km/h 20.8 km/h 25 % 0 mm
15:40 -3.4 °C -15.1 °C 34841.9 hPa NE 10.3 km/h 15.6 km/h 26 % 0 mm
15:45 -3.4 °C -15.1 °C 34841.9 hPa Calm   23.3 km/h 26 % 0 mm
15:50 -3.4 °C -15.4 °C 34841.9 hPa ESE 7.7 km/h 31.1 km/h 25 % 0 mm
15:55 -3.3 °C -15.6 °C 34841.9 hPa NE 15.6 km/h 25.9 km/h 24 % 0 mm
16:00 -3.3 °C -15.3 °C 34838.6 hPa NE 10.3 km/h 10.3 km/h 25 % 0 mm
16:05 -3.6 °C -15.2 °C 34835.2 hPa NNE 31.1 km/h 36.2 km/h 26 % 0 mm
16:10 -3.7 °C -14.7 °C 34835.2 hPa NW 5.1 km/h 38.8 km/h 28 % 0 mm
16:15 -3.7 °C -14.9 °C 34831.8 hPa NNW 7.7 km/h 31.1 km/h 27 % 0 mm
16:20 -3.6 °C -14.9 °C 34828.4 hPa NE 25.9 km/h 31.1 km/h 27 % 0 mm
16:25 -3.7 °C -15 °C 34828.4 hPa NE 2.6 km/h 31.1 km/h 27 % 0 mm
16:30 -3.4 °C -15.1 °C 34825 hPa NNW 2.6 km/h 25.9 km/h 26 % 0 mm
16:35 -3.6 °C -14.6 °C 34825 hPa North 7.7 km/h 31.1 km/h 28 % 0 mm
16:40 -3.7 °C -14.9 °C 34821.6 hPa NNW 20.8 km/h 25.9 km/h 27 % 0 mm
16:45 -3.8 °C -14.8 °C 34825 hPa NE 20.8 km/h 28.5 km/h 28 % 0 mm
16:50 -3.7 °C -14.7 °C 34821.6 hPa North 2.6 km/h 31.1 km/h 28 % 0 mm
16:55 -3.7 °C -14.9 °C 34818.2 hPa North 2.6 km/h 31.1 km/h 27 % 0 mm
17:00 -3.7 °C -14.4 °C 34821.6 hPa NNE 20.8 km/h 28.5 km/h 29 % 0 mm
17:05 -3.8 °C -13.7 °C 34818.2 hPa NNE 28.5 km/h 36.2 km/h 32 % 0 mm
17:10 -4 °C -13.6 °C 34814.9 hPa NNE 10.3 km/h 33.6 km/h 33 % 0 mm
17:15 -4 °C -14.2 °C 34811.5 hPa Calm   25.9 km/h 31 % 0 mm
17:20 -3.9 °C -13.6 °C 34814.9 hPa NW 12.9 km/h 23.3 km/h 33 % 0 mm
17:25 -4 °C -13.9 °C 34814.9 hPa North 10.3 km/h 28.5 km/h 32 % 0 mm
17:30 -4.1 °C -13.9 °C 34811.5 hPa NE 25.9 km/h 36.2 km/h 32 % 0 mm
17:35 -4.2 °C -13.8 °C 34811.5 hPa NE 31.1 km/h 33.6 km/h 33 % 0 mm
17:40 -4.1 °C -13.5 °C 34811.5 hPa NNE 12.9 km/h 36.2 km/h 34 % 0 mm
17:45 -4.1 °C -13.2 °C 34811.5 hPa NE 18.2 km/h 41.4 km/h 35 % 0 mm
17:50 -4.1 °C -13.2 °C 34808.1 hPa ENE 23.3 km/h 41.4 km/h 35 % 0 mm
17:55 -4.1 °C -13.3 °C 34808.1 hPa North 10.3 km/h 38.8 km/h 35 % 0 mm
18:00 -4.2 °C -12.9 °C 34808.1 hPa NNE 18.2 km/h 23.3 km/h 37 % 0 mm
18:05 -4.3 °C -13.4 °C 34811.5 hPa North 12.9 km/h 33.6 km/h 35 % 0 mm
18:10 -4.4 °C -13.1 °C 34808.1 hPa North 12.9 km/h 31.1 km/h 37 % 0 mm
18:15 -4.6 °C -12.9 °C 34808.1 hPa North 23.3 km/h 23.3 km/h 38 % 0 mm
18:20 -4.6 °C -13.2 °C 34808.1 hPa NNW 10.3 km/h 28.5 km/h 37 % 0 mm
18:25 -4.7 °C -13.3 °C 34808.1 hPa North 12.9 km/h 28.5 km/h 37 % 0 mm
18:30 -4.8 °C -13.4 °C 34804.7 hPa North 2.6 km/h 31.1 km/h 37 % 0 mm
18:35 -5 °C -12.9 °C 34804.7 hPa NE 18.2 km/h 28.5 km/h 40 % 0 mm
18:40 -5.2 °C -12.9 °C 34804.7 hPa North 25.9 km/h 36.2 km/h 41 % 0 mm
18:45 -5.4 °C -13.2 °C 34804.7 hPa NNE 12.9 km/h 36.2 km/h 41 % 0 mm
18:50 -5.7 °C -13.2 °C 34804.7 hPa North 10.3 km/h 28.5 km/h 42 % 0 mm
18:55 -5.9 °C -13 °C 34804.7 hPa North 12.9 km/h 33.6 km/h 44 % 0 mm
19:00 -6.1 °C -12.9 °C 34804.7 hPa NNE 12.9 km/h 28.5 km/h 45 % 0 mm
19:05 -6.2 °C -12.9 °C 34801.3 hPa NNE 33.6 km/h 36.2 km/h 46 % 0 mm
19:10 -6.3 °C -13 °C 34804.7 hPa NNE 20.8 km/h 25.9 km/h 46 % 0 mm
19:15 -6.4 °C -12.9 °C 34804.7 hPa NNW 10.3 km/h 28.5 km/h 47 % 0 mm
19:20 -6.6 °C -12.9 °C 34804.7 hPa North 7.7 km/h 28.5 km/h 48 % 0 mm
19:25 -6.7 °C -12.8 °C 34801.3 hPa NNE 10.3 km/h 23.3 km/h 49 % 0 mm
19:30 -6.8 °C -13 °C 34801.3 hPa NNE 10.3 km/h 28.5 km/h 49 % 0 mm
19:35 -7 °C -12.9 °C 34804.7 hPa NE 12.9 km/h 28.5 km/h 50 % 0 mm
19:40 -7.1 °C -13.1 °C 34804.7 hPa NE 25.9 km/h 31.1 km/h 50 % 0 mm
19:45 -7.3 °C -13.2 °C 34801.3 hPa NNE 5.1 km/h 31.1 km/h 50 % 0 mm
19:50 -7.4 °C -13.1 °C 34804.7 hPa NNE 18.2 km/h 20.8 km/h 51 % 0 mm
19:55 -7.4 °C -13.2 °C 34804.7 hPa North 5.1 km/h 23.3 km/h 51 % 0 mm
20:00 -7.6 °C -13.2 °C 34804.7 hPa NNE 12.9 km/h 25.9 km/h 52 % 0 mm
20:05 -7.7 °C -13.3 °C 34804.7 hPa North 2.6 km/h 15.6 km/h 52 % 0 mm
20:10 -7.8 °C -13.2 °C 34804.7 hPa North 5.1 km/h 23.3 km/h 53 % 0 mm
20:15 -8 °C -13.2 °C 34808.1 hPa North 5.1 km/h 23.3 km/h 54 % 0 mm
20:20 -8.1 °C -13.2 °C 34808.1 hPa Calm   23.3 km/h 55 % 0 mm
20:25 -8.2 °C -13.3 °C 34808.1 hPa NNE 5.1 km/h 12.9 km/h 55 % 0 mm
20:30 -8.3 °C -13.4 °C 34808.1 hPa Calm   7.7 km/h 55 % 0 mm
20:35 -8.4 °C -13.4 °C 34811.5 hPa Calm   10.3 km/h 55 % 0 mm
20:40 -8.5 °C -13.6 °C 34808.1 hPa NNE 2.6 km/h 5.1 km/h 55 % 0 mm
20:45 -8.7 °C -13.6 °C 34811.5 hPa NNE 5.1 km/h 5.1 km/h 56 % 0 mm
20:50 -8.7 °C -13.6 °C 34811.5 hPa Calm   5.1 km/h 56 % 0 mm
20:55 -8.8 °C -13.7 °C 34811.5 hPa NNE 2.6 km/h 5.1 km/h 56 % 0 mm
21:00 -9.1 °C -13.8 °C 34811.5 hPa Calm   2.6 km/h 57 % 0 mm
21:05 -9.2 °C -13.8 °C 34814.9 hPa NNE 5.1 km/h 7.7 km/h 58 % 0 mm
21:10 -9.3 °C -13.9 °C 34814.9 hPa Calm   2.6 km/h 58 % 0 mm
21:15 -9.4 °C -13.9 °C 34814.9 hPa Calm   2.6 km/h 59 % 0 mm
21:20 -9.6 °C -14 °C 34814.9 hPa NNE 2.6 km/h 5.1 km/h 59 % 0 mm
21:25 -9.7 °C -14 °C 34814.9 hPa Calm   7.7 km/h 60 % 0 mm
21:30 -9.8 °C -14.1 °C 34814.9 hPa Calm   5.1 km/h 60 % 0 mm
21:35 -9.9 °C -14.1 °C 34814.9 hPa Calm   5.1 km/h 61 % 0 mm
21:40 -10.1 °C -14.2 °C 34814.9 hPa Calm   5.1 km/h 61 % 0 mm
21:45 -10.1 °C -14.2 °C 34818.2 hPa Calm   2.6 km/h 61 % 0 mm
21:50 -10.2 °C -14.2 °C 34814.9 hPa Calm   5.1 km/h 62 % 0 mm
21:55 -10.3 °C -14.2 °C 34814.9 hPa Calm   2.6 km/h 62 % 0 mm
22:00 -10.3 °C -14.3 °C 34814.9 hPa Calm   5.1 km/h 62 % 0 mm
22:05 -10.4 °C -14.2 °C 34814.9 hPa Calm   5.1 km/h 63 % 0 mm
22:10 -10.4 °C -14.3 °C 34814.9 hPa Calm   5.1 km/h 63 % 0 mm
22:15 -10.5 °C -14.3 °C 34818.2 hPa Calm   5.1 km/h 63 % 0 mm
22:20 -10.6 °C -14.4 °C 34814.9 hPa Calm   2.6 km/h 63 % 0 mm
22:25 -10.7 °C -14.5 °C 34818.2 hPa Calm   5.1 km/h 63 % 0 mm
22:30 -10.8 °C -14.5 °C 34814.9 hPa Calm   5.1 km/h 64 % 0 mm
22:35 -10.9 °C -14.6 °C 34814.9 hPa NNE 5.1 km/h 5.1 km/h 64 % 0 mm
22:40 -10.9 °C -14.6 °C 34814.9 hPa Calm   7.7 km/h 64 % 0 mm
22:45 -11 °C -14.7 °C 34814.9 hPa Calm   2.6 km/h 64 % 0 mm
22:50 -11.1 °C -14.8 °C 34811.5 hPa Calm   2.6 km/h 64 % 0 mm
22:55 -11.2 °C -14.8 °C 34814.9 hPa Calm   5.1 km/h 64 % 0 mm
23:00 -11.3 °C -14.9 °C 34814.9 hPa Calm   2.6 km/h 64 % 0 mm
23:05 -11.3 °C -15 °C 34814.9 hPa NNE 2.6 km/h 5.1 km/h 64 % 0 mm
Gegevens verzameld door Weather Underground - 2.75 mb

Script ontwikkeld door  Jim McMurry - jmcmurry@mwt.net Aangepast voor de template door  Wim van der Kuil - Leuven-Template.eu